Regional Weather Roundup
Issued by NWS

Home | Current Version | Previous Version | Text Only | Print | Product List | Glossary On
Versions: 1 2 3 4 5 6 7 8 9 10 11 12 13 14 15 16 17 18 19 20 21 22 23 24 25 26 27 28 29 30 31 32 33 34 35 36 37 38 39 40 41 42 43 44 45 46 47 48 49 50
000
ASUS45 KABQ 251610
RWRNM
NEW MEXICO REGIONAL WEATHER ROUNDUP
NATIONAL WEATHER SERVICE ALBUQUERQUE NM
1000 AM MDT MON JUL 25 2016

NOTE: "FAIR" MEANS FEW OR NO CLOUDS BELOW 12,000 FEET AGL WITH NO
       SIGNIFICANT WEATHER OR OBSTRUCTIONS TO VISION.

      THIS PRODUCT IS RELEASED AS TWO VERSIONS.  ONE VERSION NEAR
      THE TOP OF THE HOUR CONTAINING PRELIMINARY DATA FROM ALBUQUERQUE
      AND OTHER STATIONS.  A FINAL VERSION WITH ADDITIONAL DATA IS
      ISSUED ABOUT 10 MINUTES AFTER THE HOUR.

NMZ501-503-504-510>518-251700-
NORTHWEST PLATEAU/NORTHCENTRAL MOUNTAINS

CITY           SKY/WX    TMP DP  RH WIND       PRES   REMARKS
FARMINGTON     FAIR      80  48  32 SE9       30.26R
LOS ALAMOS     FAIR      75  46  36 E6        30.41F
SANTA FE       FAIR      80  49  33 S10       30.34S
TAOS           FAIR      73  39  29 W3        30.41F
ANGEL FIRE     FAIR      62  51  67 NE6       30.49F

$$
NMZ402-403-502-505>509-251700-
WESTCENTRAL MOUNTAINS/SOUTHWEST MOUNTAINS

CITY           SKY/WX    TMP DP  RH WIND       PRES   REMARKS
GALLUP         FAIR      80  49  33 VRB6      30.34S
GRANTS         FAIR      80  48  32 S9        30.36S
SILVER CITY    FAIR      84  48  29 E8        30.25F

$$
NMZ407-409-411-412-251700-
SOUTHERN DESERTS

CITY           SKY/WX    TMP DP  RH WIND       PRES   REMARKS
LORDSBURG      FAIR      82  54  36 W10       30.18F
DEMING         FAIR      89  53  29 E7        30.16S
LAS CRUCES     FAIR      88  52  29 E6        30.18S
HOLLOMAN AFB   FAIR      90  53  28 W8        30.14S
ALAMOGORDO     FAIR      86  54  32 SE3       30.16S
T OR C         FAIR      86  51  29 NE8       30.21R

$$
NMZ519>523-251700-
CENTRAL VALLEYS/CENTRAL HIGHLANDS

CITY           SKY/WX    TMP DP  RH WIND       PRES   REMARKS
ALBUQUERQUE    FAIR      83  52  34 NE5       30.27S
DOUBLE EAGLE   MOSUNNY   81  52  36 CALM      30.32S
MORIARTY ARPT  FAIR      76  51  41 S3        30.35S
CLINES CORNERS FAIR      73  53  49 SE6       30.40S
BELEN          FAIR      79  53  41 W6        30.26F
SOCORRO        FAIR      84  50  30 NW9       30.23F

$$
NMZ524>526-539-540-251700-
SOUTHCENTRAL MOUNTAINS

CITY           SKY/WX    TMP DP  RH WIND       PRES   REMARKS
RUIDOSO          N/A     75  50  41 SE7       30.39S

$$
NMZ527>531-251700-
NORTHEAST HIGHLANDS/NORTHEAST PLAINS

CITY           SKY/WX    TMP DP  RH WIND       PRES   REMARKS
LAS VEGAS      FAIR      74  51  44 MISG      30.38F
RATON          FAIR      73  55  53 SE7       30.32F
CLAYTON        FAIR      79  61  53 N3        30.25S

$$
NMZ532>537-251700-
EASTCENTRAL PLAINS

CITY           SKY/WX    TMP DP  RH WIND       PRES   REMARKS
TUCUMCARI      FAIR      82  59  45 VRB5      30.18F
CANNON AFB     FAIR      84  60  43 VRB2      30.19S
CLOVIS AIRPORT FAIR      82  59  44 CALM      30.19F

$$
NMZ028-029-538-251700-
SOUTHEAST PLAINS

CITY           SKY/WX    TMP DP  RH WIND       PRES   REMARKS
ROSWELL        FAIR      87  55  33 VRB3      30.14S
ARTESIA        FAIR      86  57  37 VRB3      30.14S
CARLSBAD       FAIR      89  56  32 N7        30.10F
HOBBS          SUNNY     86  59  39 VRB6      30.15S


$$




USA.gov is the U.S. government's official web portal to all federal, state and local government web resources and services.